Content
SEND FEEDBACK

Daily
Averages
Monthly
Summary
United States of America

ELLIJAY, GEORGIA


Home > North America > United States > Georgia
Elevation: 130 feet     Latitude: 34 42N     Longitude: 084 29W

WEATHER
 
SELECT A DAY
Number of Records: 64,069;   Date Range: 10/11/11 - 9/17/14
 
SHARE

PRINT THIS DATA

[ ← Previous Day ]
WEATHER ALMANAC - FEBRUARY 13, 2013
[ Next Day → ]
[ °C ]   °F
Weather ElementAverageHighLow
Temperature42.5 °F50 °F (1:35 pm) (1:50 pm)
Dewpoint35.3 °F44.6 °F (12:15 pm) (7:00 pm)
Humidity75.9 %87 % (7:35 am)65 % (7:55 pm)
Barometer29.41 in29.96 in (11:55 pm) (7:00 pm)
Wind Speed6.9 mph12.7 mph (1:35 am)
Wind Gust24.2 mph (1:55 pm)
Weather ElementAverage
Visibility7.5 mi
Wind DirectionSSW (189 °)

Weather ElementTotal
Precipitation---
Heating Degree Days40 (Base 65)
Averaged from 72 records on February 13, 2013
WEATHER CONDITIONS BREAKOUT
WIND DIRECTION BREAKOUT
WEATHER BY HOUR - FEBRUARY 13, 2013
[ °C ]   °F
Local TimeTemperatureDewpointHumidityBarometerVisibilityWind DirectionWind SpeedGust SpeedPrecipitationEventsConditions
12:35 AM44.6 °F33.8 °F66 %29.84 in10.0 miENE (70°)6.9 mph17.3 mphOvercast
12:55 AM44.6 °F33.8 °F66 %29.84 in10.0 miEast (90°)10.4 mph19.6 mphOvercast
1:15 AM44.6 °F33.8 °F66 %29.85 in10.0 miEast (100°)8.1 mphOvercast
1:35 AM44.6 °F35.6 °F71 %29.83 in10.0 miEast (100°)12.7 mph16.1 mphLight Drizzle
1:55 AM44.6 °F35.6 °F71 %29.83 in10.0 miEast (100°)9.2 mphLight Drizzle
2:15 AM44.6 °F35.6 °F71 %29.83 in10.0 miEast (90°)6.9 mph16.1 mphOvercast
2:35 AM42.8 °F35.6 °F76 %29.82 in10.0 miEast (80°)10.4 mphRainRain
2:55 AM42.8 °F35.6 °F76 %29.80 in7.0 miEast (100°)11.5 mph19.6 mphOvercast
3:15 AM42.8 °F37.4 °F81 %29.80 in7.0 miEast (90°)5.8 mphOvercast
3:35 AM42.8 °F37.4 °F81 %29.80 in4.0 miEast (90°)8.1 mphRainLight Rain
3:55 AM42.8 °F37.4 °F81 %29.79 in4.0 miEast (80°)8.1 mphLight Drizzle
4:15 AM42.8 °F37.4 °F81 %29.78 in5.0 miEast (80°)5.8 mphHaze
4:35 AM42.8 °F37.4 °F81 %29.77 in7.0 miEast (80°)8.1 mphOvercast
4:55 AM42.8 °F37.4 °F81 %29.76 in7.0 miEast (80°)9.2 mphDrizzle
5:15 AM42.8 °F37.4 °F81 %29.75 in4.0 miENE (60°)8.1 mph16.1 mphLight Drizzle
5:35 AM42.8 °F37.4 °F81 %29.75 in4.0 miEast (90°)8.1 mph18.4 mphHaze
5:55 AM42.8 °F37.4 °F81 %29.76 in3.0 miESE (110°)6.9 mphHaze
6:15 AM42.8 °F37.4 °F81 %29.76 in2.5 miEast (100°)9.2 mphLight Drizzle
6:35 AM42.8 °F37.4 °F81 %29.77 in3.0 miEast (90°)5.8 mphLight Drizzle
6:55 AM42.8 °F37.4 °F81 %29.77 in2.5 miEast (90°)9.2 mphRainRain
7:15 AM42.8 °F37.4 °F81 %29.76 in2.5 miENE (60°)6.9 mphDrizzle
7:35 AM42.8 °F39.2 °F87 %29.78 in2.5 miEast (100°)4.6 mphDrizzle
7:55 AM42.8 °F39.2 °F87 %29.76 in2.0 miEast (90°)5.8 mphDrizzle
8:15 AM42.8 °F39.2 °F87 %29.77 in2.0 miENE (70°)4.6 mphDrizzle
8:35 AM42.8 °F39.2 °F87 %29.77 in1.5 miEast (90°)4.6 mphDrizzle
8:55 AM42.8 °F39.2 °F87 %29.78 in1.5 miCalmLight Drizzle
9:15 AM42.8 °F39.2 °F87 %29.79 in1.0 miCalmRainHeavy Rain
9:35 AM42.8 °F39.2 °F87 %29.78 in1.2 miCalmRainRain
9:55 AM42.8 °F39.2 °F87 %29.78 in1.8 miCalmRainLight Rain
10:15 AM44.6 °F39.2 °F81 %29.80 in1.8 miSE (140°)3.5 mphLight Drizzle
10:35 AM44.6 °F41.0 °F87 %29.80 in2.5 miCalmLight Drizzle
10:55 AM44.6 °F41.0 °F87 %29.80 in5.0 miCalmOvercast
11:15 AM44.6 °F41.0 °F87 %29.80 in5.0 miSW (220°)3.5 mphRainLight Rain
11:35 AM46.4 °F42.8 °F87 %29.78 in3.0 miCalmOvercast
11:55 AM46.4 °F42.8 °F87 %29.79 in10.0 miWSW (240°)5.8 mphOvercast
12:15 PM48.2 °F44.6 °F87 %29.79 in10.0 miWest (260°)5.8 mphOvercast
12:35 PM48.2 °F42.8 °F82 %29.77 in10.0 miWest (270°)8.1 mphOvercast
12:55 PM48.2 °F41.0 °F76 %29.78 in10.0 miWest (270°)8.1 mphOvercast
1:15 PM48.2 °F41.0 °F76 %29.79 in10.0 miWest (280°)9.2 mphOvercast
1:35 PM50.0 °F39.2 °F66 %29.78 in10.0 miWNW (290°)9.2 mphOvercast
1:50 PM0.0 °F0.0 °FSSW (200°)9.2 mph
1:55 PM48.2 °F37.4 °F66 %29.78 in10.0 miWest (280°)10.4 mph24.2 mphOvercast
2:15 PM46.4 °F35.6 °F66 %29.78 in10.0 miWNW (290°)8.1 mph18.4 mphOvercast
2:35 PM44.6 °F37.4 °F76 %29.79 in7.0 miWest (280°)5.8 mph16.1 mphOvercast
2:55 PM44.6 °F37.4 °F76 %29.79 in10.0 miWNW (300°)8.1 mphLight Drizzle
3:15 PM44.6 °F35.6 °F71 %29.80 in10.0 miWNW (300°)6.9 mphOvercast
3:35 PM46.4 °F35.6 °F66 %29.80 in10.0 miWest (280°)9.2 mphOvercast
3:55 PM46.4 °F35.6 °F66 %29.80 in10.0 miWest (280°)4.6 mphOvercast
4:15 PM44.6 °F35.6 °F71 %29.81 in10.0 miWNW (290°)6.9 mphOvercast
4:35 PM44.6 °F35.6 °F71 %29.82 in10.0 miWest (270°)9.2 mphOvercast
4:55 PM44.6 °F33.8 °F66 %29.82 in10.0 miWNW (290°)9.2 mphOvercast
5:15 PM44.6 °F35.6 °F71 %29.83 in10.0 miWNW (300°)5.8 mphOvercast
5:35 PM44.6 °F33.8 °F66 %29.84 in10.0 miWNW (290°)6.9 mphOvercast
5:55 PM44.6 °F33.8 °F66 %29.85 in10.0 miWNW (300°)11.5 mph23.0 mphOvercast
6:15 PM44.6 °F33.8 °F66 %29.87 in10.0 miWNW (300°)11.5 mph17.3 mphOvercast
6:35 PM42.8 °F32.0 °F66 %29.88 in10.0 miNW (310°)8.1 mphOvercast
6:55 PM42.8 °F32.0 °F66 %29.89 in10.0 miWNW (300°)6.9 mph18.4 mphMostly Cloudy
7:15 PM42.8 °F32.0 °F66 %29.90 in10.0 miWNW (300°)4.6 mphMostly Cloudy
7:35 PM41.0 °F32.0 °F70 %29.91 in10.0 miWNW (300°)4.6 mphMostly Cloudy
7:55 PM41.0 °F30.2 °F65 %29.91 in10.0 miWNW (300°)11.5 mph17.3 mphScattered Clouds
8:15 PM39.2 °F30.2 °F70 %29.92 in10.0 miNW (310°)11.5 mph16.1 mphScattered Clouds
8:35 PM39.2 °F30.2 °F70 %29.92 in10.0 miNW (310°)11.5 mph17.3 mphMostly Cloudy
8:55 PM39.2 °F28.4 °F65 %29.92 in10.0 miWNW (300°)6.9 mphScattered Clouds
9:15 PM37.4 °F28.4 °F70 %29.93 in10.0 miNW (310°)6.9 mphClear
9:35 PM37.4 °F28.4 °F70 %29.93 in10.0 miNW (310°)5.8 mphClear
9:55 PM37.4 °F28.4 °F70 %29.93 in10.0 miWNW (300°)5.8 mphClear
10:15 PM37.4 °F30.2 °F75 %29.94 in10.0 miWNW (300°)6.9 mphClear
10:35 PM35.6 °F30.2 °F81 %29.95 in10.0 miNW (310°)5.8 mph16.1 mphClear
10:55 PM35.6 °F30.2 °F81 %29.95 in10.0 miNW (310°)8.1 mphClear
11:15 PM35.6 °F30.2 °F81 %29.95 in10.0 miNW (310°)6.9 mph17.3 mphClear
11:35 PM37.4 °F30.2 °F75 %29.95 in10.0 miNW (310°)6.9 mph17.3 mphScattered Clouds
11:55 PM37.4 °F28.4 °F70 %29.96 in10.0 miNW (320°)6.9 mphScattered Clouds
Hourly data recorded from KCNI, located miles away from Ellijay, Georgia







STORIES FROM OUR PARTNERS